RH
64 58 51 47 44 39 34 29 27 25 25 30 40 48 41 45 47 39 43 47 48 45 41 34 33 37 42 44 44 44 46 46 54 49 56 57 58 57 46 45 55 58 72
60 54 50 48 42 38 33 31 28 26 28 35 40 42 43 48 40 46 51 54 53 47 37 35 36 38 41 45 46 49 45 57 70 63 68 69 74 71 64 59 72 57 72
55 50 50 45 42 39 34 31 29 27 28 34 38 42 42 40 46 53 54 56 56 53 44 36 36 39 43 47 50 46 54 72 79 80 74 78 80 82 76 72 77 69 64
53 51 50 45 44 40 33 30 29 28 31 35 43 43 45 47 52 60 61 60 65 61 42 36 35 41 48 47 50 52 71 79 84 88 85 85 87 87 88 86 91 81 66
53 53 49 48 45 38 33 29 29 31 36 37 44 43 48 53 62 64 64 70 67 51 40 35 37 41 44 47 50 66 79 84 87 89 90 91 93 93 97 98 97 93 76
56 53 51 47 43 36 30 28 31 35 40 41 46 49 55 63 76 70 73 71 55 42 37 38 39 43 47 47 56 74 82 87 90 93 95 94 95 96 99 98 99 97 86
59 53 49 46 39 32 30 30 32 35 40 45 51 56 64 66 70 72 65 50 43 42 40 38 44 47 49 55 68 79 86 90 93 96 97 95 94 98 99 98 98 98 96
56 49 47 41 35 32 31 31 32 35 40 48 55 60 61 61 60 52 48 43 42 41 40 44 47 51 54 60 76 84 87 92 96 98 93 91 92 95 95 93 90 90 96
51 47 42 36 32 32 32 34 34 38 45 48 51 53 52 51 49 51 47 43 42 42 45 47 49 53 57 62 77 73 67 87 97 96 88 86 87 94 95 96 99 98 96
48 43 36 30 29 32 33 36 38 43 48 48 49 50 54 51 52 50 47 42 44 47 44 45 48 51 55 62 71 66 67 88 96 97 89 84 85 95 94 95 99 99 99
44 36 29 27 28 30 32 41 44 48 47 49 54 55 56 55 54 52 47 46 49 47 42 37 46 44 52 67 73 71 70 82 96 98 91 83 80 86 96 95 94 88 89
36 28 25 26 27 27 34 43 50 51 55 61 65 64 60 55 53 51 50 51 50 46 40 36 42 52 58 70 76 72 67 71 96 99 97 87 82 80 80 88 87 85 81
29 26 26 26 24 29 39 48 55 58 63 71 73 63 58 53 53 53 55 54 48 45 43 40 39 43 56 73 79 76 69 62 94 98 99 92 87 82 79 77 77 78 73
28 27 26 24 26 36 46 53 59 64 71 75 61 54 55 54 55 56 58 53 46 45 46 45 44 45 47 61 84 79 71 59 91 95 97 99 91 87 80 77 74 71 69
29 28 25 29 34 43 51 59 66 72 76 65 57 56 57 56 57 59 59 49 47 47 47 50 50 51 54 56 75 85 75 64 76 96 93 94 99 96 87 84 79 77 77
30 30 32 35 41 47 54 63 72 75 70 61 62 59 56 57 59 62 57 49 49 50 50 49 52 53 54 54 58 79 84 72 62 89 95 94 93 94 98 92 87 87 86
31 31 34 40 46 52 60 68 72 71 67 69 67 60 58 58 61 63 56 49 49 49 50 50 49 51 54 54 53 61 77 84 72 60 86 96 93 91 88 93 99 96 92
33 35 38 43 51 58 67 76 77 69 71 72 66 61 61 58 62 64 56 49 48 48 48 49 50 50 49 49 49 50 61 75 82 78 64 61 90 93 91 89 89 88 89
36 38 42 48 54 61 69 76 80 74 74 74 66 64 64 61 62 64 59 49 47 46 46 45 46 48 48 48 47 44 43 52 69 79 81 71 53 55 78 92 89 89 89
42 44 47 52 57 63 71 80 79 73 76 75 66 63 66 63 61 62 65 53 46 45 44 43 43 45 46 47 47 46 44 42 44 57 75 81 79 62 43 43 64 75 82
46 50 54 58 62 66 71 81 86 78 78 84 78 70 69 67 64 61 61 63 51 47 45 42 41 42 44 47 46 41 43 43 44 46 50 65 80 79 74 53 33 31 44
49 54 59 63 66 70 70 79 86 89 82 89 94 84 74 74 68 65 62 60 64 57 50 44 42 44 45 47 46 40 39 43 45 48 48 49 58 75 78 76 70 44 34
57 59 62 66 70 75 76 78 85 91 88 87 94 98 93 83 77 74 70 67 64 66 66 56 47 46 48 51 50 41 38 40 44 48 51 52 54 58 69 79 77 73 65
63 69 67 67 71 78 82 85 88 91 95 95 96 97 99 99 96 87 82 79 73 70 70 69 66 57 52 54 57 46 40 42 45 49 53 55 58 61 63 66 78 81 78
68 69 69 71 74 78 85 89 92 93 93 91 91 92 94 96 98 98 98 93 87 82 78 74 72 72 68 61 61 57 48 46 47 50 52 55 60 63 66 68 68 75 84
65 67 70 76 81 83 88 90 92 90 86 84 81 80 83 85 88 88 93 98 98 92 90 84 76 73 76 78 72 65 55 53 52 52 53 56 60 63 67 70 71 76 80